McCook, NE

11:55 PM CDT on October 20, 2017 (GMT -0500)
McCook Municipal

Weather History for KMCK - August, 2014

Change the Weather History Date:

Wednesday, August 20, 2014

  Actual Average Record
Temperature  
Mean Temperature 85 °F 73 °F  
Max Temperature 98 °F 87 °F 103 °F (1974)
Min Temperature 72 °F 60 °F 48 °F (1950)
Cooling Degree Days 20    
Growing Degree Days 34 (Base 50)    
Moisture  
Dew Point 62 °F    
Average Humidity 51    
Maximum Humidity 76    
Minimum Humidity 29    
Precipitation  
Precipitation T in 0.09 in 2.10 in (1964)
Month to date precipitation 1.69 2.27  
Year to date precipitation 16.82 16.84  
Sea Level Pressure  
Sea Level Pressure 29.68 in    
Wind  
Wind Speed 7 mph (South)    
Max Wind Speed 15 mph    
Max Gust Speed 22 mph    
Visibility 10 miles    
Events Rain , Thunderstorm    
T = Trace of Precipitation, MM = Missing Value Source: NWS Daily Summary

Daily Weather History Graph

Daily Weather History Graph

Search for Another Location

Airport or City:

Trip Planner

Search our weather history database for the weather conditions in past years. The results will help you decide how hot, cold, wet, or windy it might be!

Date:

Astronomy

Aug. 20, 2014 Rise Set
Actual Time 6:58 AM CDT 8:32 PM CDT
Civil Twilight 6:29 AM CDT 9:00 PM CDT
Nautical Twilight 5:55 AM CDT 9:35 PM CDT
Astronomical Twilight 5:18 AM CDT 10:11 PM CDT
Moon 2:39 AM CDT (8/20) 5:18 PM CDT (8/20)
Length of Visible Light 14h 31m
Length of Day
13h 33m
Waning Crescent, 20% of the Moon is Illuminated
Aug 20
Waning Crescent
Aug 25
New
Sep 2
First Quarter
Sep 8
Full
Sep 15
Last Quarter

Hourly Weather History & Observations

Time (CDT) Temp. Heat Index Dew Point Humidity Pressure Visibility Wind Dir Wind Speed Gust Speed Precip Events Conditions
12:53 AM 73.0 °F - 64.0 °F 73% 29.72 in 10.0 mi NNW 4.6 mph - N/A   Clear
1:53 AM 73.0 °F - 63.0 °F 71% 29.71 in 10.0 mi East 4.6 mph - N/A   Clear
2:53 AM 72.0 °F - 64.0 °F 76% 29.70 in 10.0 mi East 3.5 mph - N/A   Clear
3:53 AM 73.9 °F - 62.1 °F 66% 29.70 in 10.0 mi SE 5.8 mph - N/A   Partly Cloudy
4:53 AM 73.9 °F - 61.0 °F 64% 29.68 in 10.0 mi ESE 6.9 mph - N/A   Clear
5:53 AM 73.0 °F - 64.0 °F 73% 29.68 in 8.0 mi SSE 10.4 mph - 0.00 in Rain Light Rain
6:53 AM 73.9 °F - 64.0 °F 71% 29.68 in 10.0 mi North - - 0.00 in   Mostly Cloudy
7:53 AM 73.9 °F - 64.0 °F 71% 29.69 in 10.0 mi South 9.2 mph - 0.00 in   Scattered Clouds
8:53 AM 73.9 °F - 64.9 °F 73% 29.70 in 10.0 mi South 6.9 mph - 0.00 in   Partly Cloudy
9:53 AM 81.0 °F 82.7 °F 64.9 °F 58% 29.68 in 10.0 mi SSW 11.5 mph - N/A   Clear
10:53 AM 86.0 °F 87.3 °F 64.0 °F 48% 29.69 in 10.0 mi South 8.1 mph - N/A   Clear
11:53 AM 90.0 °F 90.6 °F 63.0 °F 40% 29.68 in 10.0 mi South 8.1 mph - N/A   Clear
12:53 PM 91.9 °F 92.9 °F 63.0 °F 38% 29.68 in 10.0 mi SE 6.9 mph - N/A   Clear
1:53 PM 95.0 °F 95.6 °F 62.1 °F 33% 29.66 in 10.0 mi South 8.1 mph - N/A   Clear
2:53 PM 96.1 °F 96.0 °F 60.1 °F 30% 29.65 in 10.0 mi SSW 8.1 mph - N/A   Clear
3:53 PM 96.1 °F 96.4 °F 61.0 °F 31% 29.64 in 10.0 mi SSW 9.2 mph - N/A   Clear
4:53 PM 97.0 °F 96.9 °F 60.1 °F 29% 29.63 in 10.0 mi SSW 8.1 mph - N/A   Clear
5:53 PM 96.1 °F 96.4 °F 61.0 °F 31% 29.63 in 10.0 mi South 8.1 mph - N/A   Clear
6:53 PM 91.0 °F 90.9 °F 61.0 °F 36% 29.63 in 8.0 mi SSW 5.8 mph - N/A   Clear
7:04 PM 91.0 °F 90.9 °F 61.0 °F 36% 29.73 in 10.0 mi SW 9.2 mph - N/A Thunderstorm Clear
7:19 PM 90.0 °F 90.3 °F 62.1 °F 39% 29.73 in 10.0 mi WSW 10.4 mph - N/A   Clear
7:53 PM 87.1 °F 87.0 °F 61.0 °F 41% 29.66 in 10.0 mi SW 15.0 mph 21.9 mph N/A   Clear
8:53 PM 84.0 °F 83.3 °F 57.0 °F 40% 29.66 in 10.0 mi SE 9.2 mph 20.7 mph N/A   Scattered Clouds
9:53 PM 82.0 °F 82.0 °F 57.9 °F 44% 29.65 in 10.0 mi East 3.5 mph - N/A   Clear
10:53 PM 81.0 °F 81.3 °F 59.0 °F 47% 29.70 in 10.0 mi North 15.0 mph - N/A   Scattered Clouds
11:53 PM 75.9 °F - 61.0 °F 60% 29.71 in 10.0 mi ENE 9.2 mph - N/A   Clear